Three Rivers, MI

8:01 AM EST on November 21, 2017 (GMT -0500)
Three Rivers Municipal-Haines

Weather History for KHAI - August, 2013

Change the Weather History Date:

Tuesday, August 6, 2013

  Actual Average Record
Temperature  
Mean Temperature 70 °F -  
Max Temperature 79 °F 80 °F 91 °F (1988)
Min Temperature 62 °F 58 °F 45 °F (1957)
Cooling Degree Days 6    
Growing Degree Days 20 (Base 50)    
Moisture  
Dew Point 64 °F    
Average Humidity 83    
Maximum Humidity 94    
Minimum Humidity 66    
Precipitation  
Precipitation 0.00 in - - ()
Sea Level Pressure  
Sea Level Pressure 29.93 in    
Wind  
Wind Speed 4 mph (South)    
Max Wind Speed 10 mph    
Max Gust Speed 10 mph    
Visibility 8 miles    
Events Rain    
Averages and records for this station are not official NWS values.
T = Trace of Precipitation, MM = Missing Value Source: NWS Daily Summary

Daily Weather History Graph

Daily Weather History Graph

Search for Another Location

Airport or City:

Trip Planner

Search our weather history database for the weather conditions in past years. The results will help you decide how hot, cold, wet, or windy it might be!

Date:

Astronomy

Aug. 06, 2013 Rise Set
Actual Time 6:41 AM EDT 8:54 PM EDT
Civil Twilight 6:10 AM EDT 9:25 PM EDT
Nautical Twilight 5:32 AM EDT 10:03 PM EDT
Astronomical Twilight 4:49 AM EDT 10:45 PM EDT
Moon 6:32 AM EDT (8/6) 8:27 PM EDT (8/6)
Length of Visible Light 15h 15m
Length of Day
14h 13m
Waning Crescent, 0% of the Moon is Illuminated
Aug 6
Waning Crescent
Aug 6
New
Aug 14
First Quarter
Aug 20
Full
Aug 28
Last Quarter

Hourly Weather History & Observations

Time (EDT) Temp. Dew Point Humidity Pressure Visibility Wind Dir Wind Speed Gust Speed Precip Events Conditions
12:14 AM 66.4 °F 59.4 °F 78% 29.95 in 10.0 mi Calm Calm - N/A   Overcast
12:33 AM 65.8 °F 60.1 °F 82% 29.96 in 10.0 mi Calm Calm - N/A   Overcast
12:54 AM 66.2 °F 59.9 °F 80% 29.96 in 10.0 mi SSE 3.5 mph - N/A   Overcast
1:14 AM 64.9 °F 59.9 °F 84% 29.97 in 10.0 mi Calm Calm - N/A   Overcast
1:33 AM 65.7 °F 59.9 °F 82% 29.96 in 10.0 mi South 3.5 mph - N/A   Overcast
1:54 AM 65.7 °F 59.9 °F 82% 29.95 in 10.0 mi SE 3.5 mph - N/A   Overcast
2:13 AM 65.7 °F 59.7 °F 81% 29.95 in 10.0 mi Calm Calm - N/A Rain Light Rain
2:33 AM 64.4 °F 59.9 °F 85% 29.95 in 7.0 mi Calm Calm - N/A Rain Rain
2:54 AM 63.5 °F 60.3 °F 89% 29.95 in 7.0 mi Calm Calm - N/A Rain Light Rain
3:13 AM 63.1 °F 60.3 °F 90% 29.94 in 10.0 mi South 4.6 mph - N/A   Overcast
3:34 AM 63.1 °F 60.4 °F 91% 29.95 in 10.0 mi SSW 4.6 mph - N/A   Overcast
3:53 AM 63.0 °F 60.4 °F 91% 29.95 in 5.0 mi South 3.5 mph - N/A Rain Rain
4:13 AM 62.8 °F 60.3 °F 91% 29.96 in 7.0 mi Calm Calm - N/A Rain Light Rain
4:34 AM 62.6 °F 60.3 °F 92% 29.94 in 4.0 mi SSE 3.5 mph - N/A Rain Heavy Rain
4:53 AM 62.6 °F 60.4 °F 93% 29.94 in 5.0 mi South 4.6 mph - N/A Rain Light Rain
5:13 AM 62.6 °F 60.4 °F 93% 29.93 in 4.0 mi SSE 4.6 mph - N/A Rain Light Rain
5:34 AM 62.6 °F 60.8 °F 94% 29.93 in 5.0 mi SSE 5.8 mph - N/A Rain Light Rain
5:53 AM 62.8 °F 60.8 °F 93% 29.92 in 7.0 mi SE 4.6 mph - N/A Rain Light Rain
6:14 AM 62.6 °F 60.3 °F 92% 29.92 in 7.0 mi SSE 6.9 mph - N/A   Overcast
6:34 AM 62.6 °F 60.1 °F 91% 29.92 in 7.0 mi SE 5.8 mph - N/A   Overcast
6:53 AM 62.6 °F 60.1 °F 91% 29.92 in 7.0 mi SSE 5.8 mph - N/A   Overcast
7:14 AM 62.6 °F 60.3 °F 92% 29.92 in 7.0 mi SSE 6.9 mph - N/A   Overcast
7:34 AM 62.6 °F 60.3 °F 92% 29.93 in 7.0 mi South 3.5 mph - N/A   Overcast
7:53 AM 63.0 °F 60.8 °F 93% 29.93 in 5.0 mi SSE 6.9 mph - N/A Rain Rain
8:14 AM 62.8 °F 60.4 °F 92% 29.94 in 5.0 mi South 5.8 mph - N/A   Overcast
8:33 AM 63.0 °F 60.8 °F 93% 29.95 in 5.0 mi South 8.1 mph - N/A   Overcast
8:53 AM 63.1 °F 61.0 °F 93% 29.94 in 5.0 mi South 9.2 mph - N/A   Overcast
9:14 AM 64.4 °F 61.9 °F 92% 29.93 in 7.0 mi South 8.1 mph - N/A   Overcast
9:33 AM 64.9 °F 61.9 °F 90% 29.94 in 7.0 mi South 5.8 mph - N/A   Mostly Cloudy
9:54 AM 65.7 °F 62.1 °F 88% 29.93 in 10.0 mi South 8.1 mph - N/A   Overcast
10:13 AM 66.0 °F 62.6 °F 89% 29.94 in 10.0 mi SSW 5.8 mph - N/A   Overcast
10:33 AM 67.5 °F 63.5 °F 87% 29.94 in 10.0 mi SSW 8.1 mph - N/A   Overcast
10:54 AM 68.9 °F 63.7 °F 83% 29.93 in 10.0 mi WNW 8.1 mph - N/A   Overcast
11:13 AM 69.3 °F 64.0 °F 83% 29.93 in 10.0 mi NW 6.9 mph - N/A   Overcast
11:33 AM 70.9 °F 65.3 °F 82% 29.93 in 10.0 mi SW 8.1 mph - N/A   Overcast
11:54 AM 70.9 °F 65.3 °F 82% 29.94 in 10.0 mi SW 5.8 mph - N/A   Overcast
12:13 PM 71.1 °F 65.3 °F 82% 29.94 in 10.0 mi West 6.9 mph - N/A   Overcast
12:34 PM 71.6 °F 65.7 °F 81% 29.94 in 10.0 mi SSW 8.1 mph - N/A   Overcast
12:54 PM 72.9 °F 65.8 °F 79% 29.93 in 10.0 mi SW 6.9 mph - N/A   Overcast
1:13 PM 72.9 °F 66.2 °F 80% 29.93 in 10.0 mi SW 6.9 mph - N/A   Overcast
1:34 PM 72.9 °F 65.8 °F 79% 29.94 in 10.0 mi SW 8.1 mph - N/A   Overcast
1:54 PM 73.6 °F 66.2 °F 78% 29.93 in 10.0 mi SSW 5.8 mph - N/A   Overcast
2:13 PM 73.4 °F 65.8 °F 77% 29.93 in 10.0 mi SW 5.8 mph - N/A   Overcast
2:34 PM 74.1 °F 66.6 °F 77% 29.93 in 10.0 mi SSW 9.2 mph - N/A   Overcast
2:53 PM 74.8 °F 66.7 °F 76% 29.92 in 10.0 mi SSW 8.1 mph - N/A   Overcast
3:13 PM 74.8 °F 66.7 °F 76% 29.92 in 10.0 mi South 9.2 mph - N/A   Overcast
3:34 PM 73.9 °F 66.6 °F 78% 29.92 in 10.0 mi SW 10.4 mph - N/A   Overcast
3:53 PM 75.6 °F 67.1 °F 75% 29.92 in 10.0 mi SW 8.1 mph - N/A   Mostly Cloudy
4:13 PM 76.5 °F 66.7 °F 72% 29.91 in 10.0 mi SSW 6.9 mph 10.4 mph N/A   Scattered Clouds
4:34 PM 77.5 °F 66.7 °F 69% 29.90 in 10.0 mi SSW 10.4 mph - N/A   Scattered Clouds
4:53 PM 78.1 °F 66.6 °F 68% 29.90 in 10.0 mi SSW 8.1 mph - N/A   Clear
5:14 PM 79.0 °F 66.7 °F 66% 29.90 in 10.0 mi SSW 6.9 mph - N/A   Scattered Clouds
5:34 PM 77.0 °F 66.2 °F 69% 29.90 in 10.0 mi SSW 6.9 mph - N/A   Mostly Cloudy
5:53 PM 77.5 °F 66.6 °F 69% 29.90 in 10.0 mi SSW 8.1 mph - N/A   Mostly Cloudy
6:14 PM 77.0 °F 67.3 °F 72% 29.90 in 10.0 mi SW 6.9 mph - N/A   Mostly Cloudy
6:34 PM 77.9 °F 67.1 °F 69% 29.90 in 10.0 mi South 8.1 mph - N/A   Mostly Cloudy
6:53 PM 77.0 °F 66.9 °F 71% 29.90 in 10.0 mi South 8.1 mph - N/A   Clear
7:14 PM 75.4 °F 67.3 °F 76% 29.90 in 10.0 mi South 6.9 mph - N/A   Mostly Cloudy
7:33 PM 76.1 °F 67.5 °F 74% 29.90 in 10.0 mi South 5.8 mph - N/A   Scattered Clouds
7:54 PM 75.0 °F 67.5 °F 77% 29.90 in 10.0 mi West 6.9 mph - N/A   Clear
8:14 PM 74.3 °F 66.9 °F 78% 29.90 in 10.0 mi South 8.1 mph - N/A   Clear
8:33 PM 73.4 °F 66.6 °F 79% 29.90 in 10.0 mi South 5.8 mph - N/A   Clear
8:54 PM 71.6 °F 66.4 °F 84% 29.90 in 7.0 mi South 3.5 mph - N/A   Clear
9:13 PM 70.5 °F 66.2 °F 86% 29.90 in 10.0 mi South 5.8 mph - N/A   Clear
9:33 PM 70.0 °F 66.2 °F 88% 29.91 in 7.0 mi South 5.8 mph - N/A   Clear
9:54 PM 70.0 °F 66.4 °F 88% 29.90 in 7.0 mi South 4.6 mph - N/A   Clear
10:13 PM 69.4 °F 66.2 °F 89% 29.90 in 7.0 mi South 3.5 mph - N/A   Clear
10:34 PM 68.9 °F 65.7 °F 89% 29.91 in 7.0 mi South 3.5 mph - N/A   Clear
10:54 PM 68.9 °F 65.7 °F 89% 29.91 in 7.0 mi SSW 4.6 mph - N/A   Clear
11:13 PM 68.0 °F 65.3 °F 91% 29.91 in 7.0 mi South 3.5 mph - N/A   Clear
11:34 PM 67.8 °F 65.3 °F 92% 29.91 in 7.0 mi South 3.5 mph - N/A   Clear
11:54 PM 67.5 °F 64.9 °F 92% 29.91 in 5.0 mi South 4.6 mph - N/A   Clear